FENGYUN 1C DEB

Satellite information

Favourite Embed

Satellite Type and Status

DEBRISIN ORBIT

Key statistics

Satellite FENGYUN 1C DEB at a glance.

Uptime

9556

Days in orbit

Revolutions

≈ 14.9

Per day

Orbit

SSO

Sun Synchronous Orbit

Inclination

99.0

Latest

Satellite identification and parameters

Extended collection of information and parameters for FENGYUN 1C DEB.

Object identification

Identified? True

Debris? True

Object name: FENGYUN 1C DEB

International designator: 1999-025BMV

Object number (NORAD): 31263

Object ID (CCSDS): 31263

Country: PEOPLES REPUBLIC OF CHINA (PRC)

Current information (Y/N): Y

RCS size: SMALL

Orbital parameters

Period: 96.879 minutes

Inclination: 99.0096 deg

SMA: 6987.375 km

Apoapsis: 622.466 km

Periapsis: 596.014 km

RAAN: 87.4494 deg

Eccentricy: 0.0018929

Argument of periapsis: 333.0669 deg

Mean anomaly: 26.9558 deg

Mean motion: 14.86386249 rev/day

Mean motion (dot): 0.0003409 rev/day2

B* drag term: 0.0038415 1/REarth

Two-line elements (TLE)

Creation date: July 8, 2025, 2:27 a.m.

Reference frame: TEME

Reference center: EARTH

Epoch: July 7, 2025, 4:22 p.m. UTC

TLE line 0: 0 FENGYUN 1C DEB

TLE line 1: 1 31263U 99025BMV 25188.68258432 .00034090 00000-0 38415-2 0 9991

TLE line 2: 2 31263 99.0096 87.4494 0018929 333.0669 26.9558 14.86386249947922

Live tracking on map

Real-time ground track for satellite FENGYUN 1C DEB.

In-orbit conjunctions

A list of the most updated potential collisions computed for object FENGYUN 1C DEB.

Target Orbit TCA Probability of collision Miss distance Type
SL-8 DEB * LEO 2024-11-09 10:45:16 0.0001790132 537.0 (m) DEBRIS
PICOSAT 5 SSO 2024-08-22 11:16:21 0.0001593239 482.0 (m) PAYLOAD
COSMOS 1331 LEO 2024-06-01 16:39:48 0.0002977709 71.0 (m) PAYLOAD

Associated space launch

Chinese polar orbiting meteorological satellite

FENGYUN 1C DEB was lifted into orbit during the mission ‘Long March 4B | Feng Yun 1C’, on board a Long March 4B space rocket.

The launch took place on May 10, 1999, 1:33 a.m. from Launch Complex 7.

For more information about the launch, click the button.

Launch to space Long March 4B | Feng Yun 1C
Long March 4B | Feng Yun 1C

Agency: N/A

Status: Launch Successful

Launch date: May 10, 1999, 1:33 a.m. UTC

Rocket: Long March 4B

Launch pad: Launch Complex 7

Location: Taiyuan Satellite Launch Center, People's Republic of China

...

Latest news about this satellite

There are no fresh news available about this satellite. Check back as we update our databases every day.


Newsletter sign-up

Weekly statistics, charts and insights to help you stay on top of the space industry.